Weather History for Clinton-Sherman, OK

Change the Weather History Date:

Tuesday, January 7, 2014

  Actual Average Record
Temperature  
Mean Temperature 30 °F -  
Max Temperature 46 °F 46 °F 77 °F (2006)
Min Temperature 15 °F 27 °F 12 °F (2015)
Degree Days  
Heating Degree Days 34    
Moisture  
Dew Point 13 °F    
Average Humidity 51    
Maximum Humidity 77    
Minimum Humidity 27    
Precipitation  
Precipitation 0.00 in - - ()
Sea Level Pressure  
Sea Level Pressure 30.26 in    
Wind  
Wind Speed 16 mph (South)    
Max Wind Speed 24 mph    
Max Gust Speed 28 mph    
Visibility 10 miles    
Events      
Averages and records for this station are not official NWS values.
T = Trace of Precipitation, MM = Missing Value Source: NWS Daily Summary

Daily Weather History Graph

Daily Weather History Graph

Search for Another Location

Airport:

Trip Planner

Search our weather history database for the weather conditions in past years. The results will help you decide how hot, cold, wet, or windy it might be!

Date:

Astronomy

Jan. 07, 2014 Rise Set
Actual Time 7:46 AM CST 5:40 PM CST
Civil Twilight 7:18 AM CST 6:08 PM CST
Nautical Twilight 6:46 AM CST 6:39 PM CST
Astronomical Twilight 6:15 AM CST 7:10 PM CST
Moon 11:52 AM CST (1/7) No Moon Set
Length of Visible Light 10h 50m
Length of Day
9h 54m
Waxing Crescent, 46% of the Moon is Illuminated
Jan 7
Waxing Crescent
Jan 7
First Quarter
Jan 15
Full
Jan 23
Last Quarter
Jan 30
New

Hourly Weather History & Observations

Time (CST) Temp. Windchill Dew Point Humidity Pressure Visibility Wind Dir Wind Speed Gust Speed Precip Events Conditions
12:53 AM 19.9 °F 6.7 °F 8.1 °F 60% 30.45 in 10.0 mi SSW 13.8 mph - N/A   Clear
1:53 AM 18.0 °F 4.2 °F 9.0 °F 68% 30.43 in 10.0 mi SSW 13.8 mph - N/A   Clear
2:53 AM 18.0 °F 4.2 °F 9.0 °F 68% 30.42 in 10.0 mi SSW 13.8 mph - N/A   Clear
3:53 AM 19.0 °F 6.1 °F 9.0 °F 65% 30.39 in 10.0 mi SSW 12.7 mph - N/A   Clear
4:53 AM 17.1 °F 3.6 °F 9.0 °F 71% 30.39 in 10.0 mi SSW 12.7 mph - N/A   Clear
5:53 AM 15.1 °F 5.2 °F 9.0 °F 77% 30.38 in 10.0 mi South 6.9 mph - N/A   Clear
6:53 AM 17.1 °F 2.5 °F 10.0 °F 74% 30.34 in 10.0 mi SSW 15.0 mph - N/A   Clear
7:53 AM 19.9 °F 3.9 °F 10.0 °F 65% 30.34 in 10.0 mi SSW 20.7 mph - N/A   Clear
8:53 AM 23.0 °F 9.2 °F 10.0 °F 58% 30.34 in 10.0 mi SSW 17.3 mph - N/A   Clear
9:53 AM 28.0 °F 14.3 °F 10.9 °F 49% 30.32 in 10.0 mi SSW 21.9 mph 27.6 mph N/A   Clear
10:53 AM 35.1 °F 24.5 °F 12.0 °F 39% 30.32 in 10.0 mi SSW 18.4 mph - N/A   Clear
11:53 AM 39.0 °F 29.0 °F 12.9 °F 34% 30.27 in 10.0 mi SSW 20.7 mph - N/A   Clear
12:53 PM 44.1 °F 35.7 °F 14.0 °F 30% 30.22 in 10.0 mi SSW 20.7 mph 26.5 mph N/A   Clear
1:53 PM 46.0 °F 37.6 °F 14.0 °F 28% 30.18 in 10.0 mi SSW 24.2 mph - N/A   Clear
2:53 PM 46.9 °F - 14.0 °F 27% 30.16 in 10.0 mi South 21.9 mph - N/A   Clear
3:53 PM 46.0 °F 38.3 °F 17.1 °F 31% 30.14 in 10.0 mi South 20.7 mph - N/A   Clear
4:53 PM 45.0 °F 37.1 °F 18.0 °F 34% 30.14 in 10.0 mi South 19.6 mph - N/A   Clear
5:53 PM 39.0 °F 31.0 °F 18.0 °F 43% 30.15 in 10.0 mi South 13.8 mph - N/A   Clear
6:53 PM 37.0 °F 28.1 °F 19.0 °F 48% 30.16 in 10.0 mi South 15.0 mph - N/A   Clear
7:53 PM 37.9 °F 28.2 °F 19.0 °F 47% 30.14 in 10.0 mi South 18.4 mph - N/A   Clear
8:53 PM 35.1 °F 25.5 °F 19.0 °F 52% 30.14 in 10.0 mi SSE 15.0 mph - N/A   Clear
9:53 PM 34.0 °F 23.8 °F 18.0 °F 52% 30.13 in 10.0 mi South 16.1 mph - N/A   Clear
10:53 PM 35.1 °F 24.8 °F 18.0 °F 50% 30.11 in 10.0 mi South 17.3 mph - N/A   Clear
11:53 PM 34.0 °F 22.4 °F 16.0 °F 48% 30.08 in 10.0 mi South 20.7 mph - N/A   Clear